Dewpoint
69 71 71 71 70 72 71 72 70 69 67 68 68 67 67 67 64 64 67 66 67 68 70 71 71 70 69 69 67 71 73 71 72 74 75 75 74 74 74 76 76 75 75 74 72 73 74 74 74 73 73 71 70 68 66 66 68 67 68 68 67 70 71 71 70 70 71 69 67 66 66 68 67 71 71 70 70 72 71 73 73 72 74 76 75
69 71 70 69 69 70 70 71 71 69 67 66 68 66 66 67 66 66 64 66 67 66 70 70 69 69 68 69 69 68 72 73 70 71 73 74 74 71 71 76 77 75 74 74 73 72 74 75 74 73 74 72 71 68 66 64 64 65 66 66 67 67 70 69 70 71 71 70 68 70 68 68 69 72 73 71 71 73 71 72 70 70 71 77 76
68 72 70 71 71 69 69 70 70 68 66 64 64 63 65 66 67 66 63 63 66 67 66 67 69 70 70 69 71 70 72 71 71 70 72 73 74 72 69 71 72 73 72 73 73 73 72 75 73 73 71 72 71 70 67 66 65 65 64 65 67 67 69 71 72 71 71 70 71 69 69 69 71 72 72 71 74 73 75 74 69 67 68 68 77
68 72 71 70 70 70 70 69 67 67 64 63 62 62 61 63 66 65 64 60 62 67 67 67 67 71 70 70 70 71 71 70 70 70 70 71 72 72 71 71 71 72 71 71 70 71 71 72 71 71 71 72 72 71 70 68 68 68 67 68 70 69 70 71 72 73 72 71 72 71 71 72 71 72 71 72 70 72 72 73 72 71 71 67 71
64 67 70 69 69 70 69 68 66 66 65 62 61 60 59 59 62 65 64 61 60 63 67 68 69 70 69 70 70 71 70 70 71 69 68 69 70 69 69 70 70 70 70 70 70 71 71 70 70 71 72 71 71 70 70 70 69 68 68 69 70 70 71 71 72 73 74 73 73 74 74 74 73 73 73 73 73 72 73 75 73 74 74 71 69
64 65 66 67 69 69 69 68 66 66 65 63 61 60 58 58 59 62 63 62 61 58 64 65 66 69 71 71 71 71 72 71 71 70 67 66 67 68 68 69 68 69 69 68 69 70 69 71 70 70 71 71 70 70 72 71 70 69 70 70 69 71 72 73 74 74 74 74 75 74 75 72 72 73 74 74 72 71 70 71 73 75 77 75 70
69 64 64 65 69 68 67 67 68 66 66 65 63 62 61 58 57 58 61 62 61 58 59 65 67 67 70 70 70 71 71 71 72 72 70 67 66 67 65 66 67 68 68 67 66 67 67 67 69 70 71 71 70 70 71 71 70 71 71 72 71 71 71 72 74 74 74 74 73 73 73 72 73 71 73 74 75 75 73 71 70 72 74 75 75
66 66 66 66 67 66 67 68 68 70 68 69 67 63 62 61 61 60 62 62 60 60 58 61 65 66 67 69 70 70 71 71 72 72 71 67 65 65 66 65 64 65 66 67 66 64 64 65 65 67 69 71 71 71 71 70 71 71 71 72 72 72 71 70 71 72 72 72 71 71 71 73 73 73 72 72 71 73 74 73 73 74 74 77 76
71 69 67 67 68 68 70 69 69 70 70 71 70 68 66 65 66 65 65 63 61 60 59 58 62 65 66 68 68 67 65 67 68 70 71 71 67 63 64 65 65 65 65 64 65 65 64 62 63 62 69 76 74 75 73 75 70 71 73 73 73 73 73 72 71 72 71 71 72 72 71 71 72 72 70 70 70 70 71 71 72 72 70 71 75
71 71 72 70 68 70 71 72 71 71 71 72 73 71 70 69 66 66 65 63 66 66 65 62 59 62 65 66 66 64 62 61 69 68 70 70 69 63 62 66 67 66 66 66 63 63 63 62 60 71 74 77 76 75 74 74 76 74 74 73 74 74 73 73 73 72 71 71 70 70 69 68 67 71 70 69 71 72 70 71 71 72 74 73 74
70 71 72 74 74 74 74 73 72 72 73 73 74 74 72 70 70 71 69 67 69 72 68 64 61 60 61 63 64 62 59 58 65 63 64 67 69 68 65 66 68 68 66 69 68 64 61 61 62 65 75 75 76 76 74 72 73 73 73 73 75 77 74 73 73 72 71 70 70 70 68 69 67 67 66 62 61 61 61 69 69 70 72 71 70
71 72 71 73 73 73 74 73 74 74 74 73 74 74 73 73 72 71 69 68 71 67 66 67 68 63 61 61 61 61 60 62 60 62 63 63 67 69 65 64 63 64 67 67 66 66 64 60 58 57 59 64 65 75 76 72 71 71 71 71 71 71 72 75 76 74 73 71 70 70 69 69 69 70 66 65 66 64 67 69 72 71 72 71 71
69 71 72 72 72 73 73 73 73 73 74 75 75 75 74 74 73 70 68 69 68 70 72 68 69 68 66 66 62 61 61 62 59 60 62 62 63 67 62 62 61 61 63 66 67 67 67 65 62 59 54 71 71 66 75 76 71 69 70 71 71 70 68 67 69 75 77 76 73 72 71 71 71 71 68 68 70 69 70 65 70 70 71 70 70
70 70 71 71 72 71 71 72 72 73 74 75 75 75 74 74 75 72 70 70 71 70 69 70 70 71 70 69 69 65 64 63 59 59 60 61 62 65 66 62 61 60 63 62 63 66 69 68 67 66 63 64 70 69 70 73 77 76 75 75 74 73 71 68 67 68 71 74 75 73 74 75 74 75 76 75 73 73 72 71 72 71 71 72 73
68 67 67 69 70 70 71 72 72 72 73 74 73 72 74 73 74 75 75 74 71 71 70 70 71 71 70 69 69 67 64 62 59 58 58 59 61 64 68 66 66 66 65 64 68 65 70 69 71 69 70 69 65 68 69 71 74 76 77 74 73 73 73 72 71 70 71 70 72 73 73 74 75 75 76 76 75 75 75 75 74 73 73 74 73
64 66 66 66 67 68 69 70 72 72 72 72 72 73 74 74 73 75 74 75 73 74 72 71 71 70 70 70 68 69 66 61 59 57 57 58 60 67 70 70 69 68 68 68 67 70 68 70 72 72 72 74 73 69 71 74 73 74 75 76 75 73 70 71 68 68 70 69 71 69 68 68 67 72 73 70 74 79 77 75 75 76 75 74 72
61 63 64 63 64 66 68 69 70 71 73 73 72 72 73 73 74 75 75 72 72 70 70 70 72 70 70 71 70 70 68 65 58 56 56 57 61 69 70 69 70 70 69 70 70 69 69 70 73 70 71 74 71 65 65 71 73 72 73 72 71 70 71 71 67 65 66 65 65 66 65 64 63 63 65 66 75 76 76 74 72 72 72 72 71
58 60 61 61 63 64 66 67 68 69 71 71 71 72 74 74 73 75 72 71 71 71 70 70 71 70 70 70 69 70 69 68 58 55 55 56 63 70 71 70 70 70 70 71 71 71 71 72 74 71 71 73 67 64 63 70 75 73 71 70 70 70 69 66 64 69 64 63 63 64 64 65 65 65 66 66 66 71 75 74 71 69 69 69 67
57 59 58 60 62 63 64 65 66 66 68 70 73 71 71 73 73 75 72 72 72 72 71 70 70 71 68 68 72 70 69 67 59 56 55 54 63 71 70 70 70 70 69 70 71 71 71 72 72 72 72 72 65 63 62 69 74 73 73 71 69 69 68 68 68 66 71 72 73 72 72 70 73 75 75 69 69 73 76 75 72 71 69 67 66
58 59 60 60 61 62 63 65 66 66 67 68 71 74 74 73 73 73 73 72 71 71 70 71 71 70 69 69 68 69 69 70 72 56 54 54 56 71 71 70 70 70 70 71 71 72 71 72 73 63 62 63 63 61 59 61 74 74 73 72 71 69 67 67 70 69 71 72 74 74 74 74 74 74 74 75 74 74 74 75 75 74 72 70 69
54 57 60 59 60 62 63 63 63 65 66 67 70 70 69 72 73 74 73 72 70 71 70 70 70 71 70 70 69 69 69 69 71 56 53 53 54 60 70 70 70 71 71 72 71 70 71 71 71 66 60 59 59 59 57 57 64 75 74 74 73 76 75 73 72 75 71 72 74 75 75 75 74 73 72 73 71 72 72 72 74 74 73 71 68
52 55 58 59 60 62 64 64 64 64 66 68 69 68 68 69 69 74 74 73 72 71 72 71 71 71 71 71 72 70 70 69 70 59 55 53 53 54 67 69 70 71 71 72 71 71 71 70 72 69 60 59 58 58 57 57 58 74 76 66 66 66 77 76 76 75 73 70 69 68 67 67 70 71 71 70 70 71 70 71 72 73 75 73 72
53 55 56 57 59 58 61 63 64 65 67 66 65 66 67 68 69 70 71 71 71 70 72 72 73 73 73 74 73 72 72 73 66 70 55 53 52 52 58 64 63 73 69 70 71 71 71 72 72 70 59 57 56 57 57 57 59 68 64 63 62 63 70 74 74 74 74 73 72 72 71 69 68 68 67 68 68 70 68 71 73 74 74 75 74
55 54 55 54 55 56 56 60 63 64 66 67 67 67 66 68 69 70 70 71 72 71 71 72 73 73 72 72 72 72 75 73 70 64 67 53 52 51 53 56 60 67 70 68 70 70 71 71 71 63 57 54 54 56 56 57 65 61 60 61 62 65 72 73 73 73 73 72 72 73 72 71 71 70 69 70 68 72 70 71 75 75 75 74 75
56 55 55 55 56 55 56 58 60 61 62 63 66 67 67 68 69 71 72 71 72 73 73 73 73 72 72 71 73 74 74 75 76 73 64 58 52 52 52 54 55 57 69 70 71 70 65 62 60 60 59 53 54 55 56 56 57 59 59 60 64 71 72 72 72 72 72 72 71 72 72 72 72 72 74 75 76 75 76 73 73 75 75 76 76
56 57 56 56 56 55 54 52 52 55 56 59 62 65 64 65 66 69 70 69 71 71 70 71 72 72 73 72 74 74 74 75 76 74 73 67 59 52 52 52 55 56 61 67 64 63 61 60 59 61 60 58 64 67 68 68 59 57 59 62 69 70 71 71 72 72 71 71 71 71 71 71 71 73 76 77 75 74 74 74 74 70 70 71 74
55 56 57 57 57 57 57 52 49 50 51 50 51 57 62 64 66 68 69 69 69 70 71 71 71 71 72 72 74 73 72 74 74 73 77 77 75 68 61 60 56 55 62 64 62 67 69 69 67 65 64 63 64 67 67 68 67 63 64 66 68 70 71 72 72 72 72 71 71 71 71 71 72 74 75 76 75 75 75 75 72 71 72 71 73
54 55 55 56 56 56 55 57 56 51 50 50 50 55 60 63 65 65 65 66 68 67 67 68 69 70 70 73 73 72 73 72 75 73 75 76 76 76 73 70 68 69 67 67 69 70 70 67 68 71 72 73 71 71 71 72 72 70 69 68 69 69 70 70 71 73 73 73 72 72 72 74 73 71 71 71 72 73 75 74 73 72 71 73 73
57 56 55 54 55 57 55 53 52 52 52 55 58 62 62 61 60 61 63 66 66 65 65 65 67 69 72 73 73 72 71 72 73 65 69 60 69 73 73 74 73 72 70 64 70 70 70 69 69 70 70 69 69 70 69 70 70 71 71 72 71 71 71 70 70 71 72 72 72 73 72 72 72 71 71 70 73 72 75 76 77 76 75 73 70
54 52 52 51 50 50 50 48 50 52 51 52 55 56 61 56 61 61 60 62 59 56 55 62 63 64 65 66 69 70 71 74 64 55 55 56 54 54 57 58 58 67 66 60 66 69 70 70 70 70 69 69 69 69 69 69 70 70 71 68 70 69 69 70 70 70 71 72 72 72 72 72 72 72 72 70 72 72 74 71 76 76 75 73 72
53 52 52 51 50 51 50 50 52 55 54 52 52 52 54 61 51 51 55 58 56 53 52 52 53 54 62 64 65 60 58 57 54 52 52 52 51 49 48 49 49 49 51 65 68 68 69 71 70 70 70 70 70 69 70 70 70 70 71 68 68 69 68 69 70 70 70 70 71 71 71 71 71 71 71 70 71 71 71 73 75 76 74 73 72
53 52 52 53 54 55 54 55 55 56 57 57 58 57 56 57 59 55 51 52 52 51 50 49 49 49 50 54 60 65 61 57 54 54 52 50 50 49 49 50 50 51 51 56 69 69 69 69 69 69 70 69 69 69 69 69 70 70 68 66 67 68 69 69 71 71 70 70 70 71 71 71 71 71 71 70 70 71 71 71 72 72 72 72 72
51 51 53 53 53 54 53 54 54 54 55 57 57 58 57 56 56 58 68 51 49 49 48 47 46 46 47 46 46 50 53 54 54 51 49 49 48 49 49 48 48 47 49 60 68 69 69 70 70 70 70 69 69 69 70 70 70 68 68 68 67 67 68 72 73 72 70 70 70 70 70 71 71 70 70 70 71 70 71 70 70 70 69 70 71
52 52 52 53 55 55 55 56 56 56 56 57 58 58 57 57 57 58 58 59 60 60 50 47 46 47 46 46 48 48 47 46 47 47 48 48 46 46 45 54 46 45 54 66 67 68 70 70 70 70 71 71 70 70 70 71 71 71 70 70 69 68 70 75 75 72 71 70 70 69 70 70 70 71 71 71 70 70 70 70 70 70 69 68 68
50 53 54 55 54 53 54 55 55 56 56 56 56 56 57 58 59 58 58 59 59 60 59 64 55 49 60 59 53 49 47 47 47 47 47 46 47 45 47 60 61 61 58 63 68 69 69 69 70 70 70 70 70 70 70 71 71 71 71 72 71 70 71 71 70 73 72 71 71 71 71 70 71 70 71 71 71 70 70 70 70 70 70 70 69
48 49 50 51 52 52 52 52 53 53 53 54 55 54 55 57 57 57 56 58 58 58 58 60 62 58 54 50 50 50 50 50 49 48 46 46 45 46 62 64 64 64 63 64 66 69 70 70 70 70 71 71 71 71 71 71 71 71 71 71 71 71 71 71 71 73 75 73 72 72 70 72 71 70 72 70 71 70 70 70 69 69 69 69 70
47 47 49 50 51 51 52 53 54 54 55 54 55 55 56 56 56 57 58 57 57 57 58 61 62 62 61 64 60 52 48 49 50 49 47 45 43 54 65 68 67 66 65 66 67 68 69 69 70 71 72 72 72 71 71 72 72 73 70 72 72 74 78 75 73 73 75 73 74 74 74 72 72 74 73 72 71 70 70 70 70 69 69 67 66
48 48 48 50 50 50 51 52 52 53 53 55 55 55 55 56 56 56 57 56 57 57 59 59 59 60 61 63 66 66 68 52 49 49 42 41 48 57 63 67 69 69 66 66 67 68 68 70 71 71 72 72 74 73 72 72 72 72 72 74 76 75 72 72 71 74 76 75 74 73 74 74 74 74 72 72 71 70 69 70 69 69 70 67 68
49 49 51 51 51 50 49 50 51 52 53 53 53 54 54 54 55 55 56 57 58 58 59 59 59 59 60 63 64 67 66 68 68 68 68 66 63 63 65 68 69 70 70 70 69 68 69 70 71 72 72 73 73 74 74 72 73 74 74 76 72 73 72 73 74 74 73 73 73 74 75 75 74 74 74 73 72 72 72 72 70 69 69 69 71
49 49 49 51 50 49 49 50 50 50 50 50 51 52 53 53 54 54 55 56 57 57 57 58 59 61 61 63 63 63 63 62 62 63 63 64 65 68 70 69 69 69 70 70 71 72 72 72 73 73 73 74 75 75 75 75 74 74 76 76 71 70 69 71 73 74 74 74 73 73 73 74 74 74 73 73 72 72 73 72 72 71 71 70 71
48 48 50 50 50 49 50 50 51 51 52 52 51 51 52 52 53 54 54 55 56 56 56 57 58 60 60 59 54 55 62 62 62 62 63 63 64 65 66 67 70 69 69 69 71 71 72 72 74 76 75 75 75 76 75 75 74 74 76 72 71 69 70 71 73 74 74 74 75 74 74 75 74 74 73 73 69 71 73 72 72 72 72 72 72
49 48 48 48 48 49 49 49 50 52 54 54 54 52 53 53 53 54 54 55 55 56 56 56 57 58 55 52 50 50 59 60 61 61 62 63 64 64 65 66 68 70 70 69 70 71 72 73 73 75 76 74 73 73 73 74 74 73 76 72 70 69 70 71 73 74 75 74 74 74 74 74 73 73 72 67 73 72 72 73 73 73 72 74 72
52 50 49 50 49 49 50 51 53 53 53 53 53 54 53 53 53 55 55 57 57 56 56 56 56 58 58 53 56 52 60 60 61 61 62 62 63 63 64 65 65 66 69 70 68 68 69 69 69 69 70 72 72 70 70 69 68 69 73 74 72 72 73 74 75 75 74 75 75 73 74 73 73 72 72 72 73 72 72 74 74 73 73 73 72
56 55 53 53 52 52 52 52 52 53 54 55 55 55 55 56 57 57 57 57 57 56 55 55 55 56 58 57 58 60 59 60 61 61 63 63 64 64 65 65 66 66 65 64 63 64 64 65 65 65 65 64 64 66 67 69 69 69 69 71 71 71 73 74 73 74 75 74 75 74 73 73 72 72 70 72 73 72 73 73 73 73 72 72 72
52 53 54 54 55 55 54 54 53 52 53 54 54 54 54 54 54 54 54 54 54 56 55 55 55 55 56 57 58 58 59 59 60 61 61 61 62 61 61 61 61 61 61 61 61 61 61 61 61 62 63 62 61 60 60 61 62 64 64 64 66 67 70 72 74 75 75 74 74 74 73 72 73 73 72 72 72 73 72 73 73 69 72 71 71
49 50 52 53 54 55 55 56 56 56 54 53 53 53 53 53 54 55 54 55 55 55 55 55 55 56 56 56 56 56 56 57 57 56 57 57 57 57 57 57 57 56 56 57 58 58 59 60 59 58 59 60 60 59 58 58 58 58 59 60 61 63 64 66 66 67 68 70 71 72 72 72 72 72 71 72 72 73 73 73 73 72 72 71 71
49 49 49 49 50 52 53 54 55 55 55 53 54 53 54 53 54 54 55 55 56 56 56 55 55 55 55 55 55 55 54 54 53 53 53 53 54 53 53 52 52 53 53 53 54 53 54 54 54 54 54 54 54 56 56 55 55 56 56 57 58 58 59 58 58 61 64 66 68 69 70 70 70 70 70 70 70 71 72 72 71 71 71 71 70
47 47 48 49 49 50 52 54 53 54 54 54 54 54 52 53 53 53 53 53 54 54 54 54 54 54 54 53 53 52 52 52 51 51 51 50 50 50 50 50 50 50 51 51 51 51 50 50 50 51 51 51 51 50 51 51 52 53 53 54 55 52 49 48 54 57 60 63 65 66 67 67 68 69 69 70 70 70 70 70 70 70 70 70 69
45 46 47 48 49 49 49 50 51 52 53 54 52 52 52 52 52 53 53 53 52 52 52 52 51 51 51 51 51 50 50 50 49 49 48 48 48 47 48 48 49 49 49 49 49 49 49 49 49 49 49 49 49 48 48 48 49 49 50 51 49 44 42 42 46 55 56 60 62 64 65 66 67 67 68 68 68 68 67 66 65 65 66 65 64
47 48 48 49 49 49 50 51 51 51 51 51 50 50 51 51 51 52 52 51 50 50 50 50 49 49 49 49 49 48 48 48 47 47 47 46 46 46 46 46 47 47 47 48 48 48 48 48 48 48 48 47 47 47 46 46 46 46 47 45 41 40 40 42 45 47 55 60 62 63 64 64 64 63 63 63 63 63 62 61 62 63 63 63 63
47 48 48 48 49 49 50 50 50 50 50 50 50 51 51 51 50 50 49 49 48 48 48 48 47 47 47 47 47 47 46 46 45 45 45 45 45 45 45 45 45 46 45 46 46 46 47 47 46 46 46 46 46 46 45 44 44 43 41 40 39 39 39 41 53 44 48 54 61 60 60 59 59 59 59 58 58 58 57 58 58 58 59 59 59